• Em Portugal
  • Lista de países
  • Para 7 dias
  • Temperatura da água
  • Mapas de satélite
  • Mapa do tempo
  • Widgets de tempo
  • user-avatar
    Iniciar Sessão

    Previsão horária em Tiraspol

    Hoje, 19 Outubro, Quinta-feira

    Tempo Temperatura Precipitação Vento Pressão Humidade
    00:00 +16°C° 0 mm 3 m/s 760 mmHg 76%
    01:00 +16°C° 0 mm 3 m/s 760 mmHg 75%
    02:00 +14°C° 0 mm 3 m/s 760 mmHg 75%
    03:00 +14°C° 0 mm 3 m/s 760 mmHg 75%
    04:00 +15°C° 0 mm 2 m/s 759 mmHg 75%
    05:00 +15°C° 0 mm 2 m/s 759 mmHg 75%
    06:00 +15°C° 0 mm 2 m/s 759 mmHg 72%
    07:00 +16°C° 0 mm 2 m/s 759 mmHg 70%
    08:00 +17°C° 0 mm 2 m/s 759 mmHg 67%
    09:00 +19°C° 0 mm 3 m/s 759 mmHg 59%
    10:00 +21°C° 0 mm 3 m/s 759 mmHg 51%
    11:00 +23°C° 0 mm 4 m/s 759 mmHg 43%
    12:00 +25°C° 0 mm 4 m/s 759 mmHg 40%
    13:00 +26°C° 0 mm 4 m/s 759 mmHg 38%
    14:00 +26°C° 0 mm 4 m/s 758 mmHg 35%
    15:00 +25°C° 0 mm 4 m/s 758 mmHg 39%
    16:00 +24°C° 0 mm 3 m/s 758 mmHg 43%
    17:00 +21°C° 0 mm 3 m/s 758 mmHg 47%
    18:00 +20°C° 0 mm 3 m/s 758 mmHg 50%
    19:00 +19°C° 0 mm 3 m/s 758 mmHg 53%
    20:00 +18°C° 0 mm 3 m/s 758 mmHg 56%
    21:00 +18°C° 0 mm 3 m/s 758 mmHg 57%
    22:00 +17°C° 0 mm 3 m/s 758 mmHg 59%
    23:00 +17°C° 0 mm 2 m/s 758 mmHg 60%

    Amanhã, 20 Outubro, Sexta-feira

    Tempo Temperatura Precipitação Vento Pressão Humidade
    00:00 +16°C° 0 mm 2 m/s 758 mmHg 61%
    01:00 +16°C° 0 mm 2 m/s 758 mmHg 63%
    02:00 +16°C° 0 mm 2 m/s 758 mmHg 65%
    03:00 +15°C° 0 mm 2 m/s 758 mmHg 66%
    04:00 +15°C° 0 mm 1 m/s 758 mmHg 68%
    05:00 +15°C° 0 mm 1 m/s 758 mmHg 69%
    06:00 +15°C° 0 mm 1 m/s 758 mmHg 67%
    07:00 +16°C° 0 mm 1 m/s 759 mmHg 64%
    08:00 +18°C° 0 mm 1 m/s 759 mmHg 62%
    09:00 +19°C° 0 mm 1 m/s 759 mmHg 56%
    10:00 +21°C° 0 mm 1 m/s 759 mmHg 50%
    11:00 +23°C° 0 mm 1 m/s 759 mmHg 44%
    12:00 +23°C° 0 mm 1 m/s 759 mmHg 42%
    13:00 +24°C° 0 mm 1 m/s 759 mmHg 40%
    14:00 +25°C° 0 mm 1 m/s 758 mmHg 37%
    15:00 +24°C° 0 mm 1 m/s 758 mmHg 40%
    16:00 +23°C° 0 mm 1 m/s 758 mmHg 44%
    17:00 +22°C° 0 mm 1 m/s 758 mmHg 47%
    18:00 +21°C° 0 mm 1 m/s 759 mmHg 50%
    19:00 +20°C° 0 mm 1 m/s 759 mmHg 53%
    20:00 +18°C° 0 mm 2 m/s 759 mmHg 56%
    21:00 +18°C° 0 mm 2 m/s 759 mmHg 60%
    22:00 +17°C° 0 mm 2 m/s 759 mmHg 63%
    23:00 +17°C° 0 mm 2 m/s 760 mmHg 66%

    Depois de amanhã, 21 Outubro, Sábado

    Tempo Temperatura Precipitação Vento Pressão Humidade
    00:00 +16°C° 0 mm 2 m/s 760 mmHg 70%
    01:00 +14°C° 0 mm 3 m/s 760 mmHg 74%
    02:00 +14°C° 0 mm 3 m/s 760 mmHg 78%
    03:00 +13°C° 0 mm 3 m/s 760 mmHg 81%
    04:00 +13°C° 0 mm 3 m/s 760 mmHg 84%
    05:00 +12°C° 0 mm 3 m/s 760 mmHg 87%
    06:00 +13°C° 0 mm 3 m/s 761 mmHg 85%
    07:00 +13°C° 0 mm 4 m/s 761 mmHg 82%
    08:00 +13°C° 0 mm 4 m/s 762 mmHg 79%
    09:00 +15°C° 0 mm 4 m/s 762 mmHg 73%
    10:00 +17°C° 0 mm 4 m/s 762 mmHg 66%
    11:00 +18°C° 0 mm 4 m/s 762 mmHg 59%
    12:00 +19°C° 0 mm 4 m/s 762 mmHg 56%
    13:00 +19°C° 0 mm 3 m/s 762 mmHg 53%
    14:00 +20°C° 0 mm 3 m/s 762 mmHg 51%
    15:00 +19°C° 0 mm 3 m/s 762 mmHg 53%
    16:00 +18°C° 0 mm 3 m/s 762 mmHg 56%
    17:00 +17°C° 0 mm 3 m/s 762 mmHg 58%
    18:00 +16°C° 0 mm 3 m/s 762 mmHg 60%
    19:00 +14°C° 0 mm 3 m/s 763 mmHg 61%
    20:00 +14°C° 0 mm 3 m/s 763 mmHg 62%
    21:00 +13°C° 0 mm 3 m/s 763 mmHg 60%
    22:00 +12°C° 0 mm 3 m/s 763 mmHg 58%
    23:00 +12°C° 0 mm 4 m/s 763 mmHg 56%

    22 Outubro, Domingo

    Tempo Temperatura Precipitação Vento Pressão Humidade
    00:00 +11°C° 0 mm 3 m/s 763 mmHg 54%
    01:00 +11°C° 0 mm 3 m/s 763 mmHg 52%
    02:00 +10°C° 0 mm 3 m/s 763 mmHg 50%
    03:00 +10°C° 0 mm 3 m/s 763 mmHg 51%
    04:00 +9°C° 0 mm 3 m/s 763 mmHg 51%
    05:00 +9°C° 0 mm 3 m/s 763 mmHg 51%
    06:00 +8°C° 0 mm 4 m/s 763 mmHg 52%
    07:00 +8°C° 0 mm 4 m/s 763 mmHg 52%
    08:00 +10°C° 0 mm 4 m/s 764 mmHg 53%
    09:00 +11°C° 0 mm 4 m/s 763 mmHg 52%
    10:00 +13°C° 0 mm 4 m/s 763 mmHg 51%
    11:00 +14°C° 0 mm 4 m/s 763 mmHg 51%
    12:00 +15°C° 0 mm 5 m/s 763 mmHg 51%
    13:00 +15°C° 0 mm 5 m/s 762 mmHg 52%
    14:00 +16°C° 0 mm 5 m/s 762 mmHg 53%
    15:00 +15°C° 0 mm 5 m/s 762 mmHg 56%
    16:00 +14°C° 0 mm 5 m/s 761 mmHg 59%
    17:00 +13°C° 0 mm 4 m/s 761 mmHg 63%
    18:00 +12°C° 0 mm 4 m/s 761 mmHg 65%
    19:00 +12°C° 0 mm 4 m/s 761 mmHg 67%
    20:00 +11°C° 0 mm 4 m/s 761 mmHg 68%
    21:00 +11°C° 0 mm 4 m/s 761 mmHg 69%
    22:00 +11°C° 0 mm 4 m/s 761 mmHg 70%
    23:00 +10°C° 0 mm 5 m/s 761 mmHg 71%

    23 Outubro, Segunda-feira

    Tempo Temperatura Precipitação Vento Pressão Humidade
    00:00 +9°C° 0 mm 5 m/s 760 mmHg 72%
    01:00 +10°C° 0 mm 4 m/s 760 mmHg 73%
    02:00 +10°C° 0 mm 4 m/s 760 mmHg 75%
    03:00 +10°C° 0 mm 4 m/s 760 mmHg 75%
    04:00 +10°C° 0 mm 4 m/s 759 mmHg 75%
    05:00 +10°C° 0 mm 4 m/s 759 mmHg 75%
    06:00 +9°C° 0 mm 5 m/s 759 mmHg 73%
    07:00 +9°C° 0 mm 5 m/s 759 mmHg 71%
    08:00 +9°C° 0 mm 5 m/s 759 mmHg 70%
    09:00 +10°C° 0 mm 5 m/s 759 mmHg 66%
    10:00 +13°C° 0 mm 5 m/s 759 mmHg 61%
    11:00 +14°C° 0 mm 5 m/s 759 mmHg 57%
    12:00 +14°C° 0 mm 5 m/s 758 mmHg 56%
    13:00 +14°C° 0 mm 5 m/s 758 mmHg 54%
    14:00 +15°C° 0 mm 5 m/s 757 mmHg 52%
    15:00 +14°C° 0 mm 4 m/s 757 mmHg 54%
    16:00 +13°C° 0 mm 4 m/s 757 mmHg 56%
    17:00 +12°C° 0 mm 4 m/s 757 mmHg 57%
    18:00 +12°C° 0 mm 3 m/s 758 mmHg 59%
    19:00 +12°C° 0 mm 3 m/s 758 mmHg 60%
    20:00 +11°C° 0 mm 3 m/s 758 mmHg 61%
    21:00 +11°C° 0 mm 3 m/s 758 mmHg 62%
    22:00 +11°C° 0 mm 3 m/s 758 mmHg 63%
    23:00 +10°C° 0 mm 3 m/s 758 mmHg 64%

    24 Outubro, Terça-feira

    Tempo Temperatura Precipitação Vento Pressão Humidade
    00:00 +10°C° 0 mm 3 m/s 758 mmHg 66%
    01:00 +9°C° 0 mm 3 m/s 758 mmHg 67%
    02:00 +9°C° 0 mm 3 m/s 758 mmHg 68%
    03:00 +8°C° 0 mm 3 m/s 758 mmHg 69%
    04:00 +8°C° 0 mm 3 m/s 758 mmHg 70%
    05:00 +7°C° 0 mm 3 m/s 758 mmHg 70%
    06:00 +8°C° 0 mm 3 m/s 759 mmHg 68%
    07:00 +8°C° 0 mm 3 m/s 759 mmHg 66%
    08:00 +8°C° 0 mm 3 m/s 759 mmHg 64%
    09:00 +10°C° 0 mm 3 m/s 759 mmHg 61%
    10:00 +11°C° 0 mm 3 m/s 759 mmHg 57%
    11:00 +13°C° 0 mm 3 m/s 759 mmHg 53%
    12:00 +14°C° 0 mm 3 m/s 759 mmHg 52%
    13:00 +16°C° 0 mm 3 m/s 759 mmHg 50%
    14:00 +17°C° 0 mm 3 m/s 759 mmHg 48%
    15:00 +16°C° 0 mm 3 m/s 759 mmHg 51%
    16:00 +15°C° 0 mm 2 m/s 759 mmHg 55%
    17:00 +14°C° 0 mm 2 m/s 759 mmHg 58%
    18:00 +14°C° 0 mm 2 m/s 760 mmHg 60%
    19:00 +12°C° 0 mm 3 m/s 760 mmHg 62%
    20:00 +11°C° 0 mm 3 m/s 760 mmHg 64%
    21:00 +11°C° 0 mm 3 m/s 761 mmHg 64%
    22:00 +10°C° 0 mm 3 m/s 761 mmHg 64%
    23:00 +10°C° 0 mm 3 m/s 761 mmHg 64%
    Mostrar mais